Torna al catalogo

STARLINK-3847

AttivoComunicazioniVLEO
NORAD 52333·PAYLOAD·🇺🇸 United States

Lanciato Apr 29, 2022 da Cape Canaveral Space Force Station

Loading…

Prossimi Passaggi (prossime 24 ore)

TLE

AggiornatoSource: CelesTrak SupGP

Epoca: Sep 14, 2026, 21:22 UTC

1 52333C 22045C   26257.89076389  .00047795  00000+0  15374-2 0  2571
2 52333  53.1594  66.0560 0001285  70.9958 103.1790 15.31668880    10

Traccia STARLINK-3847 in tempo reale con AllMySat

Download on the App Store